Location: Newark
(35.8833°N, 14.5000°E)
Time: 00:54:59
(UTC+00:00)

S-56A Canister/Altair - Visible Passes

Search period start: 16 November 2019 00:00
Search period end: 26 November 2019 00:00
Orbit: 634 x 2498 km, 38.9° (Epoch: 14 November)

Date Brightness Start Highest point End Pass type
(mag) Time Alt. Az. Time Alt. Az. Time Alt. Az.
16 Nov 8.3 17:03:36 10° WSW 17:12:41 82° SSE 17:16:30 26° ENE visible
16 Nov 9.5 19:10:17 10° W 19:13:56 30° WNW 19:13:56 30° WNW visible
17 Nov 8.6 16:30:03 10° WSW 16:39:52 76° SSE 16:45:37 14° ENE visible
17 Nov 8.5 18:36:55 10° W 18:43:02 53° WNW 18:43:02 53° WNW visible
18 Nov 7.9 18:03:27 10° W 18:11:36 70° N 18:12:08 66° NNE visible
19 Nov 8.3 17:29:53 10° W 17:38:48 73° N 17:41:14 40° ENE visible
19 Nov 10.2 19:36:36 10° WNW 19:38:40 19° WNW 19:38:40 19° WNW visible
20 Nov 8.5 16:56:14 10° W 17:05:57 77° N 17:10:20 23° ENE visible
20 Nov 9.3 19:03:19 10° WNW 19:07:45 35° WNW 19:07:45 35° WNW visible
21 Nov 8.7 16:22:30 10° W 16:33:03 80° NNW 16:39:26 12° ENE visible
21 Nov 8.3 18:29:56 10° WNW 18:36:51 62° NW 18:36:51 62° NW visible
22 Nov 8.0 17:56:24 10° W 18:05:06 72° N 18:05:58 64° NE visible
22 Nov 10.7 20:02:48 10° WNW 20:03:24 12° WNW 20:03:24 12° WNW visible
23 Nov 8.4 17:22:47 10° W 17:32:15 72° N 17:35:07 37° ENE visible
23 Nov 10.0 19:29:32 10° WNW 19:32:33 24° WNW 19:32:33 24° WNW visible
24 Nov 8.6 16:49:03 10° W 16:59:20 72° N 17:04:17 21° E visible
24 Nov 9.0 18:56:10 10° WNW 19:01:42 44° W 19:01:42 44° W visible
25 Nov 8.9 16:15:15 10° W 16:26:20 73° N 16:33:28 10° E visible
25 Nov 8.1 18:22:42 10° WNW 18:30:54 80° WSW 18:30:54 80° WSW visible
